GFSMW_250_rhum_105.txt.gz
RH
48 91 100 93 100 100 100 100 100 100 100 100 100 100 100 100 100 100 100 100 100 100 100 100 100 100 100 99 100 100 100 100 100 90 93 90 81 75 71 77 76 77 92
39 56 94 100 100 100 100 100 98 100 100 100 100 100 100 100 98 100 100 89 98 100 100 100 100 100 97 97 98 100 100 100 100 99 90 88 94 97 94 99 93 92 86
42 53 67 88 93 92 92 93 87 89 100 100 100 100 100 100 100 100 100 100 100 100 100 100 99 100 100 100 100 100 100 100 100 100 100 100 93 90 97 90 89 88 73
44 50 66 79 72 96 100 100 99 100 100 100 92 100 100 100 100 100 100 90 78 79 98 100 100 100 100 100 100 100 100 100 100 100 95 78 65 62 70 68 58 61 60
40 48 57 73 74 86 77 93 100 82 97 90 87 100 100 100 100 98 100 94 96 73 88 100 100 100 100 100 100 100 100 100 100 100 100 100 96 81 76 76 81 78 86
47 54 66 63 73 72 81 71 78 66 82 76 78 91 98 100 100 100 100 85 93 100 100 100 100 100 100 95 84 100 100 99 79 100 100 100 100 100 100 100 100 100 100
38 52 53 66 68 83 83 81 95 73 84 87 72 65 71 66 76 100 100 100 100 100 100 100 91 96 100 82 70 82 100 100 100 100 100 100 100 100 100 100 100 100 100
35 35 66 70 65 78 78 80 71 79 99 92 98 74 59 48 52 50 67 87 98 100 98 100 98 97 89 88 100 98 95 99 100 100 100 100 100 100 100 100 100 100 100
76 61 36 41 74 79 68 79 86 84 79 65 73 92 82 91 57 59 73 71 64 50 55 61 60 64 65 54 55 68 78 91 100 100 100 100 100 100 100 100 100 100 100
99 74 48 36 35 45 57 81 60 69 81 87 81 89 85 99 99 80 86 100 85 75 66 59 52 48 50 53 50 50 48 59 80 86 94 79 78 70 68 70 71 89 84
96 82 78 53 40 34 31 43 64 78 77 70 73 79 84 100 100 97 96 87 99 91 71 69 67 64 59 54 54 53 50 45 49 50 49 45 39 31 27 27 27 29 29
66 97 64 71 54 37 36 32 32 42 53 57 57 68 76 72 80 70 72 65 68 88 96 69 55 50 55 58 50 43 44 46 48 51 47 40 37 34 32 32 31 32 30
84 91 85 65 49 33 30 28 30 36 38 50 59 64 83 77 64 58 58 57 53 51 50 48 47 43 40 38 40 35 32 40 42 41 40 40 40 38 37 34 30 26 28
70 65 57 64 58 52 52 45 43 46 58 61 70 72 64 64 61 55 54 55 51 47 46 46 43 40 37 34 32 30 29 30 30 32 32 32 31 30 31 32 30 31 30
59 58 62 67 69 80 89 85 75 66 59 60 63 55 51 48 46 45 44 44 44 43 40 39 37 35 33 31 30 29 28 26 27 28 27 27 27 28 28 28 28 29 30
36 41 44 47 52 61 67 67 62 61 56 51 49 43 39 40 43 43 46 42 44 38 37 37 37 33 33 32 31 29 28 28 27 25 24 25 26 26 26 27 27 27 26
35 48 48 47 45 43 41 38 41 44 45 40 41 41 46 46 49 49 44 42 43 40 38 36 37 37 36 34 31 29 28 26 26 25 25 24 24 24 23 22 23 24 24
35 38 36 34 34 37 33 32 35 40 41 42 42 46 51 58 58 60 48 44 42 43 42 35 32 31 31 30 30 28 27 26 25 25 25 24 24 24 23 23 23 23 23
26 29 31 33 34 37 38 40 47 46 39 36 36 38 47 57 56 50 46 45 42 34 25 26 28 28 26 25 22 21 20 20 18 18 17 16 15 15 14 14 14 15 16
22 26 26 26 28 30 32 30 28 30 35 36 40 46 46 44 43 43 42 34 27 25 25 25 30 28 27 24 22 20 18 18 18 17 16 15 15 15 14 14 14 14 15
20 20 25 28 29 29 28 29 29 30 35 38 42 43 46 46 42 36 30 33 31 34 32 32 25 31 28 23 20 18 17 16 16 15 15 14 14 14 13 13 13 13 13
27 23 22 23 25 26 26 28 30 30 27 26 30 34 38 41 36 36 49 51 48 40 37 31 27 24 22 22 20 18 18 17 17 20 19 17 16 16 15 16 17 16 16
37 32 29 26 25 26 27 27 30 33 34 37 41 46 47 54 66 59 56 55 52 47 43 39 30 29 30 28 28 27 27 26 27 28 27 24 22 20 19 19 18 18 22
49 44 39 35 32 33 34 40 47 50 50 53 62 67 68 67 60 51 48 51 54 62 55 47 44 36 34 36 39 39 39 35 34 33 34 32 28 24 23 23 24 25 26
44 46 54 55 52 49 48 50 52 53 54 56 56 58 58 61 65 65 70 77 76 73 72 56 44 45 45 40 42 34 34 34 36 36 42 41 45 41 46 45 43 39 36
47 55 53 57 65 68 70 70 68 70 71 72 73 74 74 74 76 80 83 85 81 73 63 56 50 46 43 35 33 34 38 40 44 43 47 54 60 62 72 70 59 52 52

GFSMW_250_rhum_108.txt.gz
RH
66 94 100 100 100 100 100 100 100 100 100 100 100 100 100 100 100 98 100 100 100 100 100 100 100 100 100 100 100 100 100 87 80 94 100 100 100 100 94 80 72 80 78
46 71 100 100 100 100 100 100 100 95 100 100 100 100 100 100 100 100 100 100 100 100 100 100 100 100 97 99 98 100 100 100 100 100 100 100 100 96 91 77 67 59 64
47 56 96 100 100 100 100 100 100 100 90 100 100 100 100 100 100 100 100 99 99 100 100 100 100 100 94 100 100 100 100 100 100 100 100 100 100 92 86 76 58 53 58
39 43 83 100 99 100 100 100 79 90 98 100 97 100 100 100 100 100 100 100 100 100 92 75 72 84 95 100 100 100 100 100 100 97 97 91 91 75 67 54 64 68 66
50 42 74 96 99 100 100 96 100 100 100 94 100 100 100 99 100 100 100 81 100 100 95 86 94 100 100 100 100 100 100 100 78 73 88 86 86 87 63 86 93 83 81
58 48 52 100 100 96 100 100 100 100 100 100 99 100 100 100 100 100 100 100 97 74 100 100 100 100 100 100 100 100 99 79 76 68 100 100 100 100 100 100 100 100 100
51 77 58 55 100 100 85 100 100 100 100 100 100 100 100 100 100 100 100 100 100 100 100 100 100 100 94 100 90 98 100 99 95 88 98 100 100 100 100 100 100 100 100
63 61 91 75 67 100 100 100 100 100 100 100 100 100 100 100 100 100 100 100 100 100 100 100 100 100 92 99 100 100 100 100 100 100 98 82 93 84 95 84 77 71 66
83 87 71 68 78 100 100 100 79 86 94 100 88 99 94 100 100 100 100 100 100 100 100 100 100 100 100 100 100 100 100 100 100 99 98 99 98 99 100 92 83 81 69
48 95 100 100 82 96 100 100 100 82 65 95 99 100 100 96 97 96 100 100 100 100 100 100 100 99 97 100 100 100 100 98 86 84 81 70 56 69 77 65 64 58 56
85 58 76 96 90 92 96 90 100 99 90 100 89 84 100 100 98 98 74 90 100 100 100 100 100 90 100 100 100 94 89 70 69 76 79 69 69 64 52 47 44 45 43
96 75 66 79 91 91 86 72 69 100 100 100 100 87 99 100 100 94 100 100 100 100 100 96 83 74 68 61 56 56 67 73 80 79 68 66 62 56 50 48 54 54 41
100 84 73 50 70 81 75 76 74 78 78 81 97 100 100 100 99 94 88 83 82 76 82 93 77 78 72 76 61 56 60 58 59 56 69 78 63 56 46 40 40 40 37
100 92 82 68 58 62 51 58 73 72 72 84 86 89 100 93 95 96 98 96 95 98 100 99 96 88 78 65 60 60 55 49 46 44 47 46 42 39 37 34 33 32 30
100 99 91 94 75 76 50 39 35 37 50 67 72 77 89 93 100 98 89 99 100 99 100 96 85 74 56 50 50 48 44 43 42 43 41 39 36 34 31 30 28 27 27
100 100 94 88 71 61 57 47 41 36 28 35 34 35 42 52 53 61 69 76 78 80 83 71 65 59 57 54 50 49 47 42 42 38 34 31 28 27 29 28 26 26 24
72 81 89 94 91 93 88 76 72 63 42 43 48 43 48 57 53 53 51 54 55 58 56 51 46 44 41 41 42 41 41 41 38 35 30 26 25 26 24 22 21 22 23
57 50 54 63 61 64 61 69 64 62 67 63 58 69 58 60 53 62 59 47 46 44 38 35 34 35 36 37 42 42 40 39 33 26 23 21 18 18 18 17 15 15 15
39 40 50 51 54 56 58 71 84 86 93 86 79 80 75 66 59 54 50 43 38 36 33 36 42 43 39 39 35 30 37 27 26 24 21 19 17 17 16 15 15 14 14
31 36 41 40 38 53 65 83 91 89 91 81 68 68 51 46 43 45 41 41 48 47 52 52 48 41 33 32 29 36 28 26 25 24 22 19 17 16 15 15 15 15 14
32 38 37 25 21 29 42 44 43 37 35 35 39 41 41 44 58 48 47 53 52 50 48 51 48 47 37 34 35 35 32 28 24 23 22 20 19 19 18 17 17 17 16
29 28 29 25 23 23 27 26 28 32 33 33 31 35 44 48 51 50 46 42 42 52 62 60 55 40 42 41 46 43 38 35 30 29 29 27 25 25 28 28 28 26 24
36 32 29 28 28 30 33 32 34 34 32 31 36 36 35 34 34 32 37 43 49 50 53 49 42 49 47 56 51 46 41 39 35 37 36 34 34 36 35 36 34 31 29
47 43 39 36 35 34 33 34 35 34 33 32 34 37 38 39 39 41 49 54 55 53 43 47 58 65 57 60 54 46 40 36 42 44 37 35 38 35 37 40 40 36 38
45 46 46 46 44 42 38 33 30 31 32 32 33 36 40 42 44 48 56 57 57 59 64 67 66 78 67 58 52 50 45 47 50 40 33 35 32 32 36 48 48 52 56
43 47 46 48 50 54 52 48 47 45 41 38 39 42 48 51 53 60 66 68 67 73 76 72 64 64 64 68 60 53 53 53 40 37 34 36 35 40 40 46 56 67 76

GFSMW_250_rhum_111.txt.gz
RH
100 100 100 100 100 100 100 100 100 100 100 100 93 75 63 60 59 60 58 58 67 92 100 100 100 100 100 100 100 100 100 100 100 100 100 100 100 100 100 96 80 73 59
98 100 100 100 100 100 100 99 100 100 91 89 71 59 64 68 74 96 100 100 100 100 100 100 100 100 100 100 100 100 100 100 100 100 100 100 100 100 100 91 82 80 66
92 100 100 99 100 100 99 100 100 100 63 65 98 98 100 100 100 100 100 100 100 98 97 100 100 92 88 82 77 94 100 100 100 100 100 99 93 96 100 90 83 62 53
58 98 100 100 100 100 100 99 90 100 100 100 100 100 94 83 92 81 92 100 100 100 99 100 96 86 70 73 96 87 86 84 89 76 71 61 57 84 91 73 66 65 58
48 95 100 100 100 100 100 100 100 100 100 100 100 100 100 100 100 100 77 82 99 76 50 60 78 64 66 75 77 100 90 67 61 50 41 48 61 57 75 79 89 75 72
76 78 98 100 100 86 100 100 100 100 100 100 100 100 100 100 100 100 100 100 100 100 100 100 100 100 100 100 97 100 100 99 81 70 78 83 75 80 75 93 100 100 100
52 92 100 100 100 81 91 100 100 100 100 100 100 100 100 100 93 100 100 100 100 100 100 100 89 100 97 100 93 82 83 100 100 98 100 97 100 100 100 100 100 100 96
56 62 78 100 100 100 100 100 99 97 94 100 100 100 100 100 99 100 100 100 100 100 100 100 100 100 100 100 100 100 100 100 100 100 100 95 86 99 100 100 99 100 100
50 44 62 100 100 94 100 100 100 99 100 100 100 100 100 100 99 100 100 100 100 100 100 100 100 100 97 100 98 99 100 100 100 92 73 77 89 95 85 82 81 77 75
80 44 44 69 99 100 100 100 90 100 100 100 100 99 100 100 100 100 100 100 100 100 100 100 96 100 99 100 100 100 100 100 100 100 100 100 100 100 100 92 84 88 69
99 56 50 55 70 100 100 100 100 83 100 100 100 100 92 100 100 100 100 100 100 100 90 89 85 100 97 100 100 100 100 100 100 100 100 100 92 100 100 92 85 68 60
100 100 79 55 63 86 100 100 100 100 88 100 100 100 100 100 100 99 94 89 96 100 100 100 100 100 100 100 100 100 100 100 100 100 100 98 89 83 69 62 58 56 48
99 100 100 72 53 98 99 100 100 100 100 93 100 100 100 100 99 100 100 96 82 93 100 100 100 100 100 100 100 100 100 100 100 100 97 85 82 73 64 55 50 49 40
96 88 100 84 74 81 99 100 100 100 100 100 100 100 100 100 80 80 99 91 100 99 100 100 100 100 100 100 100 100 100 100 96 93 93 65 53 47 40 44 40 38 38
100 91 66 95 81 80 81 76 100 100 100 100 100 100 100 100 100 100 100 100 100 100 100 100 100 100 100 100 100 100 100 100 100 78 67 60 47 46 49 43 42 37 33
91 100 68 53 74 83 62 72 74 84 100 100 100 100 100 100 100 100 100 100 100 100 100 100 100 100 100 100 100 100 100 84 70 71 56 56 56 53 51 44 36 31 31
100 85 100 86 67 72 75 75 71 78 87 98 100 100 100 100 100 100 100 100 100 100 100 100 100 100 100 100 100 92 94 87 63 63 68 51 57 40 37 32 34 29 22
99 97 88 85 73 64 53 54 60 77 83 87 83 91 100 100 100 100 100 100 99 98 96 95 92 100 100 96 84 69 66 70 57 56 50 42 35 33 35 32 25 21 17
75 84 93 88 87 85 73 65 57 52 54 59 67 81 90 83 78 79 81 92 85 78 76 69 69 66 73 65 59 59 54 50 43 39 35 35 34 33 29 24 20 17 16
66 59 84 92 97 94 97 98 87 69 69 74 65 54 53 60 55 55 54 52 49 51 59 57 50 46 46 43 45 44 44 41 35 38 37 35 32 28 23 22 20 19 17
48 66 72 73 77 84 84 90 96 99 97 92 96 90 77 68 71 81 77 71 57 52 51 48 49 45 42 47 38 40 39 43 44 40 35 30 30 25 26 22 24 23 22
43 40 52 57 65 77 75 65 70 63 64 75 74 74 75 74 63 54 61 53 55 46 51 51 56 50 40 40 38 50 53 45 43 37 30 29 31 31 28 30 30 29 30
32 32 34 41 53 57 53 40 41 49 49 49 47 51 55 71 63 53 44 50 41 39 49 43 34 31 35 43 41 46 44 43 44 33 32 36 38 35 34 39 40 36 31
31 33 37 41 42 40 34 33 36 35 29 33 35 35 40 45 42 40 41 47 42 40 37 38 37 41 47 42 39 40 44 44 46 44 43 46 45 41 40 46 41 32 29
12 22 28 31 34 35 37 36 32 28 25 25 29 32 30 30 30 29 28 28 29 30 31 33 36 39 39 43 46 50 43 48 54 57 53 55 47 45 54 45 33 34 37
9 10 12 24 32 37 40 40 38 36 34 31 29 28 28 24 23 24 26 28 30 32 32 33 33 36 39 41 47 51 53 55 57 57 60 54 54 57 46 34 34 43 44

GFSMW_250_rhum_117.txt.gz
RH
4 7 10 19 30 50 96 100 100 100 95 94 100 100 100 100 99 88 89 100 100 100 100 99 100 100 100 92 88 80 74 76 90 100 86 68 62 49 54 62 59 55 47
4 7 8 12 58 83 100 100 100 100 97 100 100 100 100 100 91 76 72 100 100 100 100 100 95 85 77 77 75 79 96 93 88 68 64 64 52 54 45 57 49 50 53
5 6 10 61 99 100 100 97 100 97 90 98 100 100 100 95 89 54 72 100 100 100 98 89 67 99 100 100 100 95 97 82 64 73 52 57 56 42 47 39 40 37 41
4 9 13 97 100 100 100 82 100 100 100 100 100 100 100 89 62 75 70 75 98 92 78 80 99 100 100 100 100 83 71 85 76 66 62 62 51 54 42 29 35 32 31
7 14 84 100 100 100 100 100 100 100 100 100 100 100 100 99 68 44 48 82 82 77 87 100 100 100 100 100 88 83 82 73 74 84 85 75 59 59 50 47 41 26 20
11 90 100 100 100 100 100 100 100 99 100 100 100 100 100 94 78 57 56 62 69 86 100 100 100 100 100 100 72 63 85 79 56 54 87 84 76 76 52 60 34 30 30
14 93 100 100 100 100 100 100 100 100 100 100 96 100 98 100 79 56 55 57 53 99 100 100 100 100 100 100 98 100 99 97 100 96 71 54 56 72 62 64 37 39 38
53 78 100 100 100 100 96 100 100 100 100 100 100 100 96 100 80 62 64 65 92 100 100 100 100 98 93 100 100 100 100 97 99 100 82 97 90 96 79 64 74 76 85
100 100 100 100 100 73 99 100 100 100 100 100 100 100 83 91 100 100 100 100 100 91 93 100 100 100 100 100 100 100 100 100 98 96 91 100 94 79 58 83 89 96 96
100 100 100 100 91 92 99 100 100 100 100 100 100 100 100 100 100 100 100 100 100 100 98 100 100 100 100 100 100 100 100 100 100 100 100 98 83 80 100 100 100 100 100
100 100 100 100 98 89 100 100 100 100 100 100 100 100 100 100 100 100 100 100 100 100 100 100 100 100 100 100 100 100 100 98 100 92 100 89 98 99 100 100 100 100 100
100 100 100 100 100 100 100 100 100 100 100 100 100 100 100 100 100 100 95 100 100 100 100 100 100 100 100 100 100 98 98 90 75 71 82 100 100 100 100 100 100 100 82
100 100 95 100 80 95 100 100 100 100 100 100 100 100 100 100 91 100 100 100 100 100 100 100 99 100 100 89 100 100 100 100 100 100 100 100 100 100 100 100 92 100 100
100 100 100 100 99 100 98 100 100 100 100 100 100 100 100 100 100 100 100 100 100 100 100 100 100 100 100 100 97 99 100 100 100 100 100 100 100 96 87 89 97 98 96
100 100 100 100 100 100 100 100 100 100 100 100 100 100 100 100 100 100 100 100 100 100 100 100 100 100 100 100 100 100 100 100 100 100 100 100 100 100 100 99 100 87 78
100 100 100 100 100 100 100 100 100 100 100 100 100 87 100 100 100 100 100 100 100 100 100 100 100 100 100 100 100 100 100 100 100 100 100 100 100 100 100 97 99 100 100
31 48 99 100 100 100 100 100 100 100 100 100 100 100 97 100 100 100 100 100 100 100 100 100 100 100 100 100 100 100 100 100 100 100 100 100 100 100 100 100 100 100 100
40 41 57 100 100 100 100 100 100 100 100 100 100 100 100 100 100 100 93 91 100 100 100 100 100 100 100 100 100 100 100 100 100 100 100 100 100 100 100 100 100 97 97
27 33 33 52 100 100 100 100 100 100 100 100 100 100 100 100 100 100 100 100 97 94 100 100 100 100 100 100 100 100 100 100 100 100 100 100 100 100 100 100 100 88 100
66 48 44 68 72 100 100 100 100 100 100 100 100 100 100 100 100 100 100 100 100 100 100 100 100 100 100 100 100 100 100 100 100 100 100 100 100 100 100 100 100 98 94
82 76 73 52 64 92 99 100 100 100 100 100 100 100 100 100 100 100 100 100 100 100 100 100 100 100 100 100 100 100 100 100 98 96 100 100 100 100 100 100 100 98 92
76 76 84 79 76 65 52 55 69 97 100 100 100 98 93 98 100 100 100 100 100 100 100 100 100 100 100 100 100 100 100 100 100 100 100 100 100 100 100 100 100 95 100
45 73 73 79 82 65 78 79 66 63 60 73 82 87 100 100 100 99 100 100 100 100 100 100 100 100 100 100 100 100 100 100 100 100 100 100 100 100 100 100 100 100 95
25 21 26 29 41 61 81 77 71 58 55 68 59 68 70 74 78 87 99 99 96 98 96 95 86 86 100 100 100 100 100 100 100 100 100 98 100 100 99 94 84 71 68
41 47 41 30 20 18 27 32 31 42 51 64 71 56 58 68 80 91 98 95 100 100 89 88 88 86 99 100 100 100 100 100 100 100 92 85 84 82 65 60 56 57 59
44 42 40 35 35 31 23 16 13 16 26 39 34 52 50 53 49 49 58 69 83 85 90 88 100 100 100 100 100 92 90 92 90 75 70 69 73 60 54 58 53 46 30

GFSMW_250_rhum_120.txt.gz
RH
2 2 3 4 8 11 15 55 84 100 100 96 100 100 82 98 100 100 100 100 100 100 100 100 95 100 100 100 100 100 100 100 100 100 100 100 92 87 65 56 46 37 32
1 2 3 5 9 12 22 49 100 100 100 100 100 100 100 100 100 100 100 100 100 100 100 92 94 96 100 100 100 100 99 98 96 96 96 98 83 64 51 42 33 34 34
2 2 3 6 10 13 61 100 100 100 100 100 100 100 100 100 100 100 100 100 100 100 100 98 76 77 100 100 100 99 100 100 100 100 82 74 62 49 38 36 31 29 30
2 2 4 7 9 14 100 100 100 96 100 100 94 100 100 100 100 100 100 100 96 92 81 68 49 54 100 100 100 100 100 100 100 100 80 66 51 52 38 38 26 22 23
2 3 4 6 7 15 83 98 100 100 100 100 98 73 100 100 100 100 100 99 96 89 64 68 44 79 100 100 100 100 100 100 100 95 98 69 59 46 32 33 30 30 22
2 3 5 6 8 19 100 100 100 100 100 100 100 99 100 99 100 100 100 95 100 96 72 49 36 96 100 100 100 100 100 100 100 100 95 80 57 77 45 44 38 35 26
3 3 6 7 10 22 100 100 100 100 100 100 100 99 99 100 98 100 100 91 98 84 77 56 49 97 100 100 100 100 100 100 100 100 94 69 57 45 31 45 58 44 61
4 5 10 13 22 70 100 100 100 100 100 100 100 100 100 100 83 100 100 100 98 90 84 71 86 100 100 100 100 100 100 100 100 100 91 77 67 79 76 53 62 60 35
5 9 15 20 100 100 100 100 100 100 100 100 100 100 100 100 100 100 100 100 100 100 93 76 86 100 99 100 100 100 100 100 100 100 100 100 90 93 62 65 59 53 75
8 14 20 72 100 100 100 100 100 100 100 100 100 100 100 100 96 91 100 100 100 99 71 95 85 93 100 100 100 100 100 100 100 100 100 100 92 77 70 70 82 82 100
14 16 50 100 100 100 100 100 100 100 100 100 100 100 100 100 100 100 100 100 100 98 93 90 91 66 100 100 100 100 100 100 100 100 100 96 93 66 80 93 100 98 91
15 20 100 100 100 100 100 100 100 100 100 100 100 100 100 100 100 100 100 100 100 97 100 100 99 82 100 100 100 100 100 100 100 100 93 82 74 72 96 100 100 82 97
21 70 100 100 100 100 100 100 100 100 100 100 100 100 100 100 100 100 100 100 100 100 100 100 99 100 84 82 100 100 100 100 100 93 94 99 86 86 78 99 100 100 100
80 100 100 100 100 100 100 100 100 100 100 100 100 100 100 100 100 100 100 100 100 100 100 100 100 100 100 100 100 100 100 100 100 100 100 100 100 100 97 100 100 100 100
100 100 100 100 100 100 100 100 100 100 100 100 100 100 100 100 100 100 100 100 100 100 100 100 100 100 100 100 100 100 100 100 100 100 100 100 100 100 100 99 100 95 100
100 100 100 100 100 100 100 100 100 100 100 100 100 100 100 100 100 100 100 100 100 100 100 100 100 100 100 100 100 100 100 100 100 100 99 97 100 100 99 100 100 100 100
100 100 100 100 100 100 100 100 100 100 100 100 100 100 100 93 100 100 100 100 100 100 100 100 100 100 100 100 100 100 100 100 100 100 100 100 100 100 100 100 100 100 100
100 100 100 100 100 100 100 100 100 100 100 100 98 100 100 99 95 98 88 100 100 100 98 100 100 100 100 100 100 100 100 100 100 100 100 100 100 100 100 100 100 100 100
100 100 100 100 100 100 100 100 100 100 100 100 100 100 100 100 100 99 100 100 99 100 100 95 72 81 100 100 100 100 100 100 100 100 100 100 100 100 100 100 100 100 100
100 100 100 100 100 100 100 100 100 100 100 100 100 86 100 98 100 100 100 99 100 100 100 100 100 100 100 100 100 100 100 100 100 100 100 100 100 100 100 100 100 97 97
100 100 100 100 100 100 100 100 100 100 100 100 100 100 100 100 100 100 100 99 78 76 93 100 100 100 100 100 100 100 100 100 100 100 100 100 100 100 100 100 100 100 100
100 100 100 100 100 100 100 100 100 100 96 94 91 100 99 100 100 100 98 98 100 99 99 89 82 72 86 96 100 100 100 100 100 100 100 100 100 100 100 100 100 100 100
100 100 100 100 100 100 88 91 94 90 90 91 89 100 100 90 88 99 92 91 99 94 95 100 100 100 100 99 93 100 100 100 100 100 100 100 100 100 100 100 100 100 100
15 31 60 74 82 94 99 100 100 100 100 100 100 100 100 100 100 100 100 98 87 100 79 76 96 99 100 100 100 100 100 100 100 100 100 100 100 100 100 100 100 100 100
34 28 19 14 15 17 20 28 37 45 41 50 61 70 77 73 77 86 98 100 100 100 100 100 100 100 100 100 100 100 100 100 100 100 100 100 100 100 100 100 100 100 100
30 39 45 47 47 39 29 21 16 14 13 13 19 23 24 25 28 37 50 70 87 97 100 100 100 100 100 100 100 100 100 100 100 100 100 100 100 100 100 100 100 100 100

GFSMW_250_rhum_123.txt.gz
RH
5 5 5 6 6 6 5 4 7 18 98 100 100 91 100 100 100 100 100 100 100 100 100 100 100 100 100 100 100 100 90 76 89 100 100 99 100 100 100 98 100 89 74
3 3 3 4 4 4 4 5 7 14 80 100 100 99 89 100 99 100 98 100 100 100 100 100 100 100 100 100 100 88 83 87 82 80 100 100 100 96 92 100 89 72 61
2 2 2 3 3 2 4 4 8 11 71 100 100 100 100 100 100 100 96 98 100 100 100 100 100 100 100 96 100 94 88 83 91 97 100 100 100 96 94 80 72 65 52
2 2 2 2 2 3 3 6 12 12 20 66 100 100 99 100 100 100 100 94 100 100 100 100 100 100 98 100 100 100 85 69 88 100 100 100 100 95 75 73 58 55 43
1 1 2 2 2 4 6 10 12 14 21 72 100 100 100 100 100 84 100 100 100 100 100 100 100 100 100 100 92 70 61 66 100 100 100 100 100 90 72 67 54 51 52
1 1 1 2 3 4 7 9 12 17 31 93 100 100 100 100 94 98 100 100 100 100 100 100 100 98 100 100 75 64 59 89 100 100 100 100 100 85 66 61 58 59 50
1 1 1 2 3 5 8 10 15 23 89 100 100 100 100 100 100 100 100 100 100 100 100 100 100 100 95 86 46 48 92 100 100 100 100 100 100 100 99 75 72 63 52
1 1 2 3 5 7 9 11 19 44 92 100 100 100 100 100 100 100 96 100 100 100 100 100 99 97 84 79 80 74 100 100 100 100 100 100 99 100 100 100 91 71 53
2 2 2 4 6 7 11 18 46 100 100 100 100 100 100 100 100 100 100 100 100 100 100 91 77 99 100 86 97 99 100 100 100 100 100 100 97 97 82 90 76 54 41
2 2 4 5 7 12 20 81 100 100 100 100 100 100 100 100 96 95 97 100 100 99 100 96 98 87 100 100 100 100 100 100 100 100 100 100 100 69 63 62 66 43 54
3 4 5 6 12 48 100 100 100 100 100 100 100 100 100 100 100 100 91 100 97 96 100 100 100 100 100 100 100 100 100 100 100 100 100 100 99 99 98 78 60 76 94
5 7 11 16 34 100 100 100 100 100 100 100 100 100 100 100 99 100 93 89 88 100 100 100 100 100 98 100 100 100 100 100 100 100 100 100 100 94 79 92 100 100 100
11 42 61 32 100 100 100 100 100 100 100 100 100 100 100 100 100 100 100 100 100 96 100 92 99 99 100 100 100 100 100 100 100 100 100 100 100 100 100 100 100 100 100
20 27 54 88 100 100 100 100 100 100 100 100 100 100 100 100 100 100 100 100 100 100 100 100 100 95 100 100 100 100 100 100 100 99 100 100 100 100 100 100 100 100 100
32 40 100 100 100 99 100 100 100 100 100 100 100 100 100 100 100 100 100 100 100 100 100 100 100 100 100 100 100 100 100 100 100 100 96 100 100 100 100 98 89 93 99
29 56 100 100 100 100 100 100 100 100 100 100 100 100 100 100 100 100 100 100 100 100 100 100 100 100 100 100 91 82 86 93 91 100 100 100 100 65 60 78 100 96 100
100 100 100 100 100 100 100 100 100 100 100 100 100 100 100 100 100 100 100 100 100 100 100 100 100 100 100 100 100 100 100 100 98 100 99 99 94 78 89 100 100 100 100
100 100 100 100 100 100 100 100 100 100 100 100 100 100 94 98 100 100 100 100 100 100 96 100 100 100 100 100 100 100 100 100 100 100 99 100 100 94 100 100 100 100 100
100 100 100 100 100 100 100 100 100 98 100 100 100 100 100 100 100 100 100 100 100 100 100 100 100 100 100 100 100 98 86 100 100 100 100 100 100 100 100 100 100 100 100
100 100 100 100 100 100 100 100 100 100 100 100 100 100 100 100 100 100 100 100 100 100 100 100 100 100 100 100 100 100 100 100 99 97 100 100 97 84 94 100 100 100 100
100 100 100 100 100 100 100 100 100 100 100 100 100 100 100 100 100 100 100 98 92 100 93 99 100 100 100 100 100 100 100 100 100 100 99 99 100 100 100 100 100 100 100
100 100 100 100 100 100 100 100 100 100 100 100 100 94 100 100 100 100 100 100 100 90 96 94 100 100 100 100 100 100 100 100 100 100 100 100 100 100 100 100 100 100 100
100 100 100 100 100 100 100 100 100 100 100 100 100 90 96 100 100 100 100 98 95 100 100 100 100 100 100 100 98 93 100 100 90 100 100 100 100 100 100 100 100 100 100
100 100 100 100 100 100 100 100 100 100 100 100 100 100 100 100 97 96 100 100 100 99 85 89 85 100 100 100 96 99 100 98 90 99 100 100 100 100 100 100 100 100 100
85 86 94 100 100 100 100 100 100 100 100 100 94 100 100 100 100 100 97 96 95 100 100 100 100 100 100 98 81 77 75 74 85 100 96 100 100 100 100 98 100 100 94
24 28 42 68 67 75 91 98 98 100 98 98 98 100 100 100 98 94 93 99 78 75 79 96 100 96 100 92 87 97 96 95 85 99 100 79 98 100 100 100 100 100 100

GFSMW_250_rhum_126.txt.gz
RH
7 7 7 7 10 11 16 22 22 23 14 12 21 72 64 78 57 39 82 97 100 87 64 100 100 100 100 100 100 100 100 100 100 100 100 100 75 75 87 91 90 100 100
4 4 5 5 6 7 12 13 15 12 11 8 24 76 64 100 88 72 78 86 100 98 100 100 100 100 100 100 100 100 100 100 100 100 100 82 71 91 95 100 100 100 100
3 3 3 4 4 5 8 10 11 12 8 7 10 20 39 100 72 97 99 100 100 100 100 100 100 100 100 100 100 100 100 100 100 100 88 76 82 100 100 100 100 98 86
2 2 2 2 3 3 5 6 6 5 6 6 6 16 52 85 98 100 100 100 100 100 100 100 100 100 100 100 100 100 100 100 100 79 80 97 79 97 95 100 100 99 85
2 2 2 2 2 2 3 4 4 4 4 4 6 20 86 90 100 100 100 100 100 100 100 100 100 100 100 100 100 100 97 96 84 100 100 98 78 80 100 100 100 98 78
1 1 2 2 2 2 3 4 3 3 3 4 6 28 100 96 100 100 100 98 100 100 100 97 100 100 100 100 100 94 100 100 100 100 100 80 74 100 100 100 100 95 91
1 1 1 1 1 2 3 3 3 3 5 8 16 95 88 94 100 100 100 100 100 100 100 100 100 100 100 100 100 100 100 100 100 98 92 79 100 100 100 99 90 100 100
1 1 1 1 1 2 2 3 3 4 6 9 14 46 100 99 100 100 100 100 100 100 100 100 100 100 100 100 100 93 100 100 92 69 100 99 100 100 100 100 92 94 89
1 1 1 1 1 1 2 3 4 5 8 13 17 23 100 100 100 100 100 100 100 100 100 100 100 100 100 100 97 97 100 97 82 100 96 100 100 100 100 100 90 86 77
1 1 1 1 2 2 3 4 5 8 13 15 20 21 97 100 100 100 100 100 100 100 100 100 100 100 100 100 92 87 92 93 86 100 100 100 100 100 100 98 93 99 92
1 1 2 2 3 4 5 7 9 12 16 21 20 28 97 100 100 100 100 100 100 100 100 100 100 100 100 100 100 100 99 100 100 100 100 100 100 100 100 100 99 100 96
2 3 3 5 7 7 8 9 13 17 22 24 33 100 100 100 100 100 100 100 100 100 100 100 100 100 100 100 100 100 100 79 96 100 100 100 100 100 100 100 100 100 100
6 7 8 8 20 11 12 14 17 25 54 100 100 100 100 100 100 100 100 100 100 100 100 100 100 100 100 100 100 100 100 100 100 100 100 100 100 100 100 100 100 95 95
15 16 15 16 12 11 17 22 29 43 79 100 100 100 100 100 100 100 100 100 100 100 100 100 100 100 100 100 100 100 100 100 100 100 100 100 100 100 100 100 100 100 100
48 93 53 79 85 76 34 39 87 96 100 100 100 100 100 100 100 100 100 100 100 100 100 100 100 100 100 100 100 100 100 100 100 96 100 100 100 100 100 100 100 100 100
100 52 100 100 100 100 100 100 100 100 100 100 100 100 100 100 100 100 100 100 100 100 100 94 91 81 81 96 82 100 98 71 86 54 63 69 93 100 100 100 99 56 97
100 100 100 100 100 84 99 100 100 100 100 100 100 100 100 100 100 100 100 100 100 100 100 100 100 100 98 100 100 87 90 100 98 100 100 100 98 95 76 68 86 97 99
100 100 100 100 100 100 100 100 100 100 100 100 100 100 100 100 100 100 100 100 100 100 100 100 100 100 100 100 100 100 100 99 100 100 100 100 100 100 99 99 100 79 71
100 100 100 100 100 100 100 100 100 100 100 100 100 100 100 100 100 100 100 100 100 100 100 100 100 100 100 100 100 100 100 100 100 100 100 100 100 100 100 100 92 99 90
100 100 100 100 100 100 100 100 100 100 100 100 100 100 100 100 100 100 100 90 96 100 100 100 100 100 100 100 100 100 100 100 100 100 100 100 100 100 95 100 100 96 96
100 100 100 100 100 100 100 100 100 100 100 100 100 100 100 100 100 96 98 100 100 100 97 91 99 100 96 100 100 100 100 100 100 100 100 100 100 100 100 100 100 100 100
100 100 100 100 100 96 96 98 100 100 97 100 100 98 98 100 100 100 100 100 100 100 100 100 100 100 100 100 100 100 100 100 100 100 100 100 100 100 100 100 100 100 100
33 100 100 100 100 86 100 100 100 100 99 100 100 100 100 94 100 100 100 100 100 91 100 100 100 100 100 100 100 100 100 100 100 100 100 100 100 100 100 100 100 100 100
30 43 77 100 99 100 100 100 99 100 100 100 100 100 100 100 96 77 91 100 100 100 100 100 100 100 100 100 100 100 100 100 100 100 100 100 100 100 100 100 100 100 100
45 40 56 74 100 100 100 100 100 100 100 100 100 100 100 100 100 100 100 100 100 100 100 100 100 100 100 100 100 100 100 100 100 100 100 100 100 100 100 100 100 100 100
53 72 72 74 86 100 100 100 100 100 100 100 100 100 95 86 90 99 94 96 99 96 97 94 93 93 92 96 100 94 87 100 97 100 100 100 100 100 100 100 100 100 100

GFSMW_250_rhum_129.txt.gz
RH
15 18 18 11 7 8 12 13 16 23 27 33 39 40 52 20 34 100 100 94 58 33 32 18 19 21 34 64 81 100 100 100 100 100 100 100 100 100 98 100 91 80 80
14 13 13 11 10 7 8 12 11 18 26 25 35 41 40 34 29 86 100 93 77 57 50 29 22 29 37 63 76 98 100 100 100 100 100 100 100 100 100 100 81 75 86
8 8 9 9 8 8 5 6 8 10 16 17 27 31 36 33 18 23 84 99 73 65 65 44 57 80 95 96 100 100 100 100 100 100 100 100 100 100 100 96 82 72 100
4 4 4 4 4 4 4 4 4 5 9 10 15 21 22 28 19 17 78 61 97 73 70 99 99 100 100 100 100 100 100 100 100 100 100 100 80 65 87 87 69 97 100
2 2 2 3 3 3 3 3 3 4 4 6 8 12 14 17 17 20 44 64 100 83 78 100 100 84 100 100 100 100 100 100 100 100 100 100 97 89 79 56 83 100 100
2 2 2 2 2 2 2 2 2 3 4 4 4 8 11 11 9 19 26 81 100 78 94 100 96 100 91 100 100 100 100 100 100 100 96 90 100 92 95 92 94 100 96
2 2 2 2 2 2 2 2 2 2 3 4 4 5 8 14 11 11 31 100 100 97 92 100 100 100 100 100 100 100 100 100 100 95 92 100 100 100 100 90 81 99 94
1 1 1 1 2 2 2 2 2 3 3 4 4 6 8 11 8 11 19 87 100 100 100 100 100 100 100 100 100 100 100 100 100 100 100 100 100 100 100 88 78 100 92
1 1 1 1 1 1 1 1 2 3 3 3 5 7 8 9 8 13 23 56 100 100 92 100 100 100 100 100 100 100 100 100 100 100 100 93 100 100 94 95 99 100 96
1 1 1 1 1 1 1 1 2 2 3 4 6 6 6 8 9 13 23 87 100 100 100 100 100 100 100 100 100 100 100 100 100 100 100 100 95 98 99 100 100 100 94
2 1 1 1 1 1 1 1 2 2 4 5 6 7 7 10 13 17 33 100 100 100 100 100 100 100 100 100 100 100 100 100 100 100 100 100 100 100 100 100 99 91 98
2 2 2 2 1 2 2 2 2 2 3 4 5 6 9 15 23 31 58 100 100 100 100 100 100 100 100 100 100 100 100 100 100 100 100 100 100 100 100 100 100 99 85
3 2 2 2 2 2 2 3 3 5 6 9 10 10 12 15 31 72 80 100 100 100 100 100 100 100 100 100 100 100 99 100 100 100 100 100 100 100 72 96 100 100 100
7 4 5 4 5 4 5 7 8 8 12 18 23 20 18 26 43 40 99 100 100 100 100 100 100 100 100 100 100 100 100 100 100 100 100 100 93 100 100 99 100 100 87
16 12 15 17 21 16 32 13 20 19 19 18 21 23 23 31 36 39 35 100 100 100 100 100 100 100 100 100 100 100 100 100 100 100 100 98 100 100 100 98 100 100 100
60 64 97 93 100 92 90 86 54 27 21 27 24 30 43 68 50 52 55 97 100 100 100 100 100 100 100 100 100 100 100 100 100 100 100 100 100 100 100 100 100 100 98
100 100 100 100 100 87 96 100 82 95 100 100 85 100 92 91 66 97 100 100 100 100 100 100 100 100 100 100 100 100 100 100 100 100 100 100 100 100 100 100 94 71 64
100 100 100 100 100 100 100 100 100 100 100 100 97 98 62 100 100 100 100 100 100 100 100 100 99 97 90 86 85 84 82 98 99 97 81 88 74 74 74 64 60 71 93
100 100 100 100 100 100 100 100 100 100 99 76 65 100 100 100 100 100 100 100 100 100 100 90 92 98 91 80 91 89 92 99 88 96 88 84 79 94 99 100 98 95 93
100 100 100 100 100 100 100 100 100 93 77 86 100 96 100 100 100 100 100 100 100 100 100 100 100 100 100 100 100 100 100 100 100 100 90 94 100 100 100 100 100 93 92
100 100 100 100 100 100 100 100 100 100 100 90 98 100 100 100 100 100 100 100 100 100 90 95 95 100 100 100 100 100 100 100 100 100 100 100 100 100 100 100 100 100 100
95 100 100 100 100 100 100 100 100 100 100 100 100 100 100 100 100 100 100 100 100 100 100 100 100 100 100 100 100 100 100 100 100 100 100 100 100 100 100 100 100 100 100
97 93 93 100 100 100 100 97 89 78 85 100 99 100 99 100 100 100 100 100 100 100 100 100 100 100 100 100 100 100 100 100 100 100 100 100 100 100 100 100 100 100 100
87 71 89 100 100 82 84 100 100 100 100 100 100 100 100 100 96 100 100 100 100 100 100 100 100 100 100 100 100 100 100 100 100 100 100 100 100 100 100 100 100 100 100
80 61 63 89 99 100 100 100 100 100 100 100 100 100 100 100 100 100 100 100 99 98 100 99 100 100 96 100 100 100 100 100 100 100 100 98 100 100 100 100 100 100 100
59 69 76 66 60 72 100 100 100 100 86 80 93 96 100 100 100 96 91 94 98 100 100 94 93 91 86 76 64 72 69 68 69 66 63 66 80 90 100 100 100 100 100